Time,TemperatureF,DewpointF,PressureIn,WindDirection,WindDirectionDegrees,WindSpeedMPH,WindSpeedGustMPH,Humidity,HourlyPrecipIn,Conditions,Clouds,dailyrainin,SoftwareType,DateUTC
2014-02-03 00:01:00,30.1,20.0,30.07,NNW,338,0.9,2.0,66,0.00,,,0.00,WUHU216HW,2014-02-03 05:01:00,
2014-02-03 00:06:00,29.9,19.8,30.08,North,0,0.7,1.6,66,0.00,,,0.00,WUHU216HW,2014-02-03 05:06:00,
2014-02-03 00:11:00,29.9,19.8,30.08,ENE,68,1.6,1.6,66,0.00,,,0.00,WUHU216HW,2014-02-03 05:11:00,
2014-02-03 00:16:00,29.7,19.7,30.09,NNW,333,1.1,1.6,66,0.00,,,0.00,WUHU216HW,2014-02-03 05:16:00,
2014-02-03 00:21:00,29.5,19.5,30.09,North,0,1.1,1.6,66,0.00,,,0.00,WUHU216HW,2014-02-03 05:21:00,
2014-02-03 00:26:00,29.5,19.5,30.09,North,0,1.3,1.3,66,0.00,,,0.00,WUHU216HW,2014-02-03 05:26:00,
2014-02-03 00:31:00,29.5,19.5,30.09,NE,45,1.1,1.3,66,0.00,,,0.00,WUHU216HW,2014-02-03 05:31:00,
2014-02-03 00:36:00,29.3,19.4,30.09,North,0,1.8,4.0,66,0.00,,,0.00,WUHU216HW,2014-02-03 05:36:00,
2014-02-03 00:41:00,29.3,19.4,30.09,North,0,0.2,4.0,66,0.00,,,0.00,WUHU216HW,2014-02-03 05:41:00,
2014-02-03 00:46:00,29.3,19.4,30.09,North,0,1.3,1.3,66,0.00,,,0.00,WUHU216HW,2014-02-03 05:46:00,
2014-02-03 00:51:00,29.2,19.2,30.09,North,0,0.0,1.3,66,0.00,,,0.00,WUHU216HW,2014-02-03 05:51:00,
2014-02-03 00:56:00,29.0,19.0,30.09,North,0,2.0,2.2,66,0.00,,,0.00,WUHU216HW,2014-02-03 05:56:00,
2014-02-03 01:01:00,28.8,18.9,30.10,North,0,2.0,2.2,66,0.00,,,0.00,WUHU216HW,2014-02-03 06:01:00,
2014-02-03 01:06:00,28.6,18.7,30.09,North,0,0.4,2.0,66,0.00,,,0.00,WUHU216HW,2014-02-03 06:06:00,
2014-02-03 01:11:00,28.6,18.7,30.10,North,0,1.8,2.0,66,0.00,,,0.00,WUHU216HW,2014-02-03 06:11:00,
2014-02-03 01:16:00,28.4,18.5,30.10,NW,315,0.7,1.8,66,0.00,,,0.00,WUHU216HW,2014-02-03 06:16:00,
2014-02-03 01:21:00,28.4,18.5,30.10,NNW,338,0.7,1.1,66,0.00,,,0.00,WUHU216HW,2014-02-03 06:21:00,
2014-02-03 01:26:00,28.4,18.5,30.10,North,0,0.8,1.1,66,0.00,,,0.00,WUHU216HW,2014-02-03 06:26:00,
2014-02-03 01:31:00,28.4,18.5,30.11,WSW,240,1.5,1.8,66,0.00,,,0.00,WUHU216HW,2014-02-03 06:31:00,
2014-02-03 01:36:00,28.3,18.4,30.11,NW,315,0.3,1.8,66,0.00,,,0.00,WUHU216HW,2014-02-03 06:36:00,
2014-02-03 01:41:00,28.3,18.4,30.12,SE,135,0.9,1.1,66,0.00,,,0.00,WUHU216HW,2014-02-03 06:41:00,
2014-02-03 01:46:00,28.1,18.2,30.12,North,0,2.0,2.0,66,0.00,,,0.00,WUHU216HW,2014-02-03 06:46:00,
2014-02-03 01:51:00,28.1,18.2,30.12,North,0,0.4,2.0,66,0.00,,,0.00,WUHU216HW,2014-02-03 06:51:00,
2014-02-03 01:56:00,27.9,18.0,30.12,NNE,14,2.3,2.7,66,0.00,,,0.00,WUHU216HW,2014-02-03 06:56:00,
2014-02-03 02:01:00,27.9,18.0,30.12,North,0,2.5,3.1,66,0.00,,,0.00,WUHU216HW,2014-02-03 07:01:00,
2014-02-03 02:06:00,27.7,17.8,30.12,North,0,2.5,3.1,66,0.00,,,0.00,WUHU216HW,2014-02-03 07:06:00,
2014-02-03 02:11:00,27.7,17.8,30.12,North,356,1.2,2.5,66,0.00,,,0.00,WUHU216HW,2014-02-03 07:11:00,
2014-02-03 02:16:00,27.7,17.8,30.12,North,0,0.8,2.5,66,0.00,,,0.00,WUHU216HW,2014-02-03 07:16:00,
2014-02-03 02:21:00,27.7,17.8,30.11,North,0,0.8,1.6,66,0.00,,,0.00,WUHU216HW,2014-02-03 07:21:00,
2014-02-03 02:26:00,27.7,17.8,30.11,South,180,0.2,1.6,66,0.00,,,0.00,WUHU216HW,2014-02-03 07:26:00,
2014-02-03 02:31:00,27.5,17.6,30.12,North,0,0.6,1.6,66,0.00,,,0.00,WUHU216HW,2014-02-03 07:31:00,
2014-02-03 02:36:00,27.5,17.6,30.12,NNE,23,0.4,1.3,66,0.00,,,0.00,WUHU216HW,2014-02-03 07:36:00,
2014-02-03 02:41:00,27.7,17.8,30.13,NNE,23,1.0,1.6,66,0.00,,,0.00,WUHU216HW,2014-02-03 07:41:00,
2014-02-03 02:46:00,27.5,17.6,30.13,South,189,0.6,1.6,66,0.00,,,0.00,WUHU216HW,2014-02-03 07:46:00,
2014-02-03 02:51:00,27.5,17.6,30.13,NNE,23,0.7,0.9,66,0.00,,,0.00,WUHU216HW,2014-02-03 07:51:00,
2014-02-03 02:56:00,27.5,17.6,30.13,North,0,1.2,2.0,66,0.00,,,0.00,WUHU216HW,2014-02-03 07:56:00,
2014-02-03 03:01:00,27.4,17.5,30.12,North,0,1.1,2.0,66,0.00,,,0.00,WUHU216HW,2014-02-03 08:01:00,
2014-02-03 03:06:00,27.4,17.5,30.12,NNE,23,0.0,1.8,66,0.00,,,0.00,WUHU216HW,2014-02-03 08:06:00,
2014-02-03 03:11:00,27.4,17.5,30.12,NNE,23,0.7,1.3,66,0.00,,,0.00,WUHU216HW,2014-02-03 08:11:00,
2014-02-03 03:16:00,27.4,17.5,30.12,North,0,1.1,1.1,66,0.00,,,0.00,WUHU216HW,2014-02-03 08:16:00,
2014-02-03 03:21:00,27.2,17.3,30.12,North,0,1.5,2.0,66,0.00,,,0.00,WUHU216HW,2014-02-03 08:21:00,
2014-02-03 03:26:00,27.2,17.3,30.12,NNE,23,1.1,2.0,66,0.00,,,0.00,WUHU216HW,2014-02-03 08:26:00,
2014-02-03 03:31:00,27.0,17.1,30.12,North,0,1.3,1.8,66,0.00,,,0.00,WUHU216HW,2014-02-03 08:31:00,
2014-02-03 03:36:00,27.0,17.1,30.12,North,0,0.8,1.8,66,0.00,,,0.00,WUHU216HW,2014-02-03 08:36:00,
2014-02-03 03:41:00,27.0,17.1,30.12,NNE,23,1.7,2.7,66,0.00,,,0.00,WUHU216HW,2014-02-03 08:41:00,
2014-02-03 03:45:00,27.0,17.1,30.12,NNE,23,1.1,2.7,66,0.00,,,0.00,WUHU216HW,2014-02-03 08:45:00,
2014-02-03 03:50:00,27.0,17.1,30.12,North,0,2.7,2.7,66,0.00,,,0.00,WUHU216HW,2014-02-03 08:50:00,
2014-02-03 03:55:00,26.8,16.9,30.12,North,0,1.0,2.7,66,0.00,,,0.00,WUHU216HW,2014-02-03 08:55:00,
2014-02-03 04:00:00,26.8,16.9,30.12,North,0,2.0,2.0,66,0.00,,,0.00,WUHU216HW,2014-02-03 09:00:00,
2014-02-03 04:05:00,26.6,16.7,30.12,North,0,2.2,2.2,66,0.00,,,0.00,WUHU216HW,2014-02-03 09:05:00,
2014-02-03 04:10:00,26.6,16.7,30.12,North,0,0.7,2.2,66,0.00,,,0.00,WUHU216HW,2014-02-03 09:10:00,
2014-02-03 04:15:00,26.6,16.7,30.12,North,0,1.8,2.2,66,0.00,,,0.00,WUHU216HW,2014-02-03 09:15:00,
2014-02-03 04:20:00,26.6,16.7,30.13,North,0,1.3,1.8,66,0.00,,,0.00,WUHU216HW,2014-02-03 09:20:00,
2014-02-03 04:25:00,26.6,16.7,30.12,North,0,0.7,1.8,66,0.00,,,0.00,WUHU216HW,2014-02-03 09:25:00,
2014-02-03 04:30:00,26.6,16.7,30.12,North,0,1.8,1.8,66,0.00,,,0.00,WUHU216HW,2014-02-03 09:30:00,
2014-02-03 04:35:00,26.6,16.7,30.13,North,0,1.1,1.8,66,0.00,,,0.00,WUHU216HW,2014-02-03 09:35:00,
2014-02-03 04:40:00,26.6,16.7,30.13,North,0,1.1,1.6,66,0.00,,,0.00,WUHU216HW,2014-02-03 09:40:00,
2014-02-03 04:45:00,26.6,16.7,30.13,North,0,0.6,1.3,66,0.00,,,0.00,WUHU216HW,2014-02-03 09:45:00,
2014-02-03 04:50:00,26.5,16.6,30.13,North,0,0.4,1.1,66,0.00,,,0.00,WUHU216HW,2014-02-03 09:50:00,
2014-02-03 04:55:00,26.5,16.6,30.12,North,0,0.6,1.1,66,0.00,,,0.00,WUHU216HW,2014-02-03 09:55:00,
2014-02-03 05:00:00,26.5,16.6,30.13,North,0,0.0,0.7,66,0.00,,,0.00,WUHU216HW,2014-02-03 10:00:00,
2014-02-03 05:05:00,26.5,16.6,30.13,North,0,0.6,1.1,66,0.00,,,0.00,WUHU216HW,2014-02-03 10:05:00,
2014-02-03 05:10:00,26.5,16.6,30.13,North,0,0.0,1.1,66,0.00,,,0.00,WUHU216HW,2014-02-03 10:10:00,
2014-02-03 05:15:00,26.5,16.6,30.14,North,0,0.0,0.7,66,0.00,,,0.00,WUHU216HW,2014-02-03 10:15:00,
2014-02-03 05:20:00,26.5,16.6,30.14,North,0,0.0,0.2,66,0.00,,,0.00,WUHU216HW,2014-02-03 10:20:00,
2014-02-03 05:25:00,26.5,16.6,30.15,North,0,0.2,0.9,66,0.00,,,0.00,WUHU216HW,2014-02-03 10:25:00,
2014-02-03 05:30:00,26.5,16.6,30.14,North,0,0.0,0.9,66,0.00,,,0.00,WUHU216HW,2014-02-03 10:30:00,
2014-02-03 05:35:00,26.5,16.6,30.14,North,0,0.4,0.4,66,0.00,,,0.00,WUHU216HW,2014-02-03 10:35:00,
2014-02-03 05:40:00,26.5,16.6,30.14,North,0,0.0,0.7,66,0.00,,,0.00,WUHU216HW,2014-02-03 10:40:00,
2014-02-03 05:45:00,26.5,16.6,30.14,North,0,0.0,0.7,66,0.00,,,0.00,WUHU216HW,2014-02-03 10:45:00,
2014-02-03 05:50:00,26.5,16.6,30.14,North,0,0.4,0.7,66,0.00,,,0.00,WUHU216HW,2014-02-03 10:50:00,
2014-02-03 05:55:00,26.5,16.6,30.15,North,0,0.4,0.7,66,0.00,,,0.00,WUHU216HW,2014-02-03 10:55:00,
2014-02-03 06:00:00,26.5,16.6,30.15,North,0,0.0,0.4,66,0.00,,,0.00,WUHU216HW,2014-02-03 11:00:00,
2014-02-03 06:05:00,26.5,16.6,30.15,North,0,0.0,0.0,66,0.00,,,0.00,WUHU216HW,2014-02-03 11:05:00,
2014-02-03 06:10:00,26.5,16.6,30.15,North,0,1.3,1.6,66,0.00,,,0.00,WUHU216HW,2014-02-03 11:10:00,
2014-02-03 06:15:00,26.5,16.6,30.15,North,0,0.9,1.6,66,0.00,,,0.00,WUHU216HW,2014-02-03 11:15:00,
2014-02-03 06:20:00,26.3,16.4,30.15,North,0,0.0,0.9,66,0.00,,,0.00,WUHU216HW,2014-02-03 11:20:00,
2014-02-03 06:25:00,26.3,16.4,30.15,North,0,0.3,0.7,66,0.00,,,0.00,WUHU216HW,2014-02-03 11:25:00,
2014-02-03 06:30:00,26.3,16.4,30.15,North,0,0.6,1.1,66,0.00,,,0.00,WUHU216HW,2014-02-03 11:30:00,
2014-02-03 06:35:00,26.3,16.4,30.15,North,0,0.0,1.1,66,0.00,,,0.00,WUHU216HW,2014-02-03 11:35:00,
2014-02-03 06:40:00,26.3,16.4,30.15,North,0,0.0,1.1,66,0.00,,,0.00,WUHU216HW,2014-02-03 11:40:00,
2014-02-03 06:45:00,26.3,16.4,30.15,North,0,0.0,0.4,66,0.00,,,0.00,WUHU216HW,2014-02-03 11:45:00,
2014-02-03 06:50:00,26.3,16.4,30.16,ESE,113,0.4,0.4,66,0.00,,,0.00,WUHU216HW,2014-02-03 11:50:00,
2014-02-03 06:55:00,26.3,16.7,30.16,SSE,158,0.4,0.4,67,0.00,,,0.00,WUHU216HW,2014-02-03 11:55:00,
2014-02-03 07:00:00,26.1,16.6,30.15,SSE,158,0.0,0.4,67,0.00,,,0.00,WUHU216HW,2014-02-03 12:00:00,
2014-02-03 07:05:00,26.1,16.6,30.16,SSE,158,0.0,0.4,67,0.00,,,0.00,WUHU216HW,2014-02-03 12:05:00,
2014-02-03 07:10:00,26.1,16.6,30.16,SSE,158,0.0,0.4,67,0.00,,,0.00,WUHU216HW,2014-02-03 12:10:00,
2014-02-03 07:15:00,26.1,16.6,30.15,SSE,158,0.0,0.4,67,0.00,,,0.00,WUHU216HW,2014-02-03 12:15:00,
2014-02-03 07:20:00,25.9,16.4,30.16,SSE,158,0.7,1.1,67,0.00,,,0.00,WUHU216HW,2014-02-03 12:20:00,
2014-02-03 07:25:00,25.9,16.4,30.15,SSE,158,0.6,1.1,67,0.00,,,0.00,WUHU216HW,2014-02-03 12:25:00,
2014-02-03 07:30:00,25.9,16.4,30.16,East,90,0.4,0.9,67,0.00,,,0.00,WUHU216HW,2014-02-03 12:30:00,
2014-02-03 07:35:00,25.9,16.4,30.16,NE,45,1.1,1.3,67,0.00,,,0.00,WUHU216HW,2014-02-03 12:35:00,
2014-02-03 07:40:00,25.9,16.4,30.16,NNE,23,1.1,1.3,67,0.00,,,0.00,WUHU216HW,2014-02-03 12:40:00,
2014-02-03 07:45:00,25.9,16.4,30.16,NNE,23,0.6,1.3,67,0.00,,,0.00,WUHU216HW,2014-02-03 12:45:00,
2014-02-03 07:50:00,25.7,16.2,30.16,NNE,23,1.6,1.6,67,0.00,,,0.00,WUHU216HW,2014-02-03 12:50:00,
2014-02-03 07:55:00,25.7,16.2,30.16,NNE,23,0.9,1.6,67,0.00,,,0.00,WUHU216HW,2014-02-03 12:55:00,
2014-02-03 08:00:00,25.7,16.2,30.16,NNE,23,1.3,1.6,67,0.00,,,0.00,WUHU216HW,2014-02-03 13:00:00,
2014-02-03 08:05:00,25.7,16.2,30.17,NNE,23,1.6,1.6,67,0.00,,,0.00,WUHU216HW,2014-02-03 13:05:00,
2014-02-03 08:10:00,25.7,16.2,30.17,North,0,1.1,1.8,67,0.00,,,0.00,WUHU216HW,2014-02-03 13:10:00,
2014-02-03 08:15:00,25.7,16.2,30.17,NNE,23,1.1,1.8,67,0.00,,,0.00,WUHU216HW,2014-02-03 13:15:00,
2014-02-03 08:20:00,25.6,16.0,30.16,NNE,23,2.3,2.5,67,0.00,,,0.00,WUHU216HW,2014-02-03 13:20:00,
2014-02-03 08:25:00,25.6,16.0,30.15,NNE,23,1.1,2.5,67,0.00,,,0.00,WUHU216HW,2014-02-03 13:25:00,
2014-02-03 08:30:00,25.6,16.0,30.16,NNE,23,1.8,2.5,67,0.00,,,0.00,WUHU216HW,2014-02-03 13:30:00,
2014-02-03 08:35:00,25.6,16.0,30.16,NNE,23,0.7,2.5,67,0.00,,,0.00,WUHU216HW,2014-02-03 13:35:00,
2014-02-03 08:40:00,25.6,16.0,30.16,NNE,23,1.5,1.8,67,0.00,,,0.00,WUHU216HW,2014-02-03 13:40:00,
2014-02-03 08:45:00,25.6,16.0,30.16,NNE,23,1.4,1.8,67,0.00,,,0.00,WUHU216HW,2014-02-03 13:45:00,
2014-02-03 08:50:00,25.6,16.0,30.16,NNE,23,0.9,1.6,67,0.00,,,0.00,WUHU216HW,2014-02-03 13:50:00,
2014-02-03 08:55:00,25.6,16.0,30.16,NE,45,1.1,1.1,67,0.00,,,0.00,WUHU216HW,2014-02-03 13:55:00,
2014-02-03 09:00:00,25.6,16.0,30.15,NE,45,0.6,1.1,67,0.00,,,0.00,WUHU216HW,2014-02-03 14:00:00,
2014-02-03 09:05:00,25.6,16.0,30.15,NE,45,0.9,1.1,67,0.00,,,0.00,WUHU216HW,2014-02-03 14:05:00,
2014-02-03 09:10:00,25.7,16.2,30.16,NE,45,1.5,1.8,67,0.00,,,0.00,WUHU216HW,2014-02-03 14:10:00,
2014-02-03 09:15:00,25.6,16.0,30.16,NE,45,0.6,1.8,67,0.00,,,0.00,WUHU216HW,2014-02-03 14:15:00,
2014-02-03 09:20:00,25.7,16.2,30.16,NE,45,1.1,1.1,67,0.00,,,0.00,WUHU216HW,2014-02-03 14:20:00,
2014-02-03 09:25:00,25.6,16.0,30.16,NNE,23,0.4,1.1,67,0.00,,,0.00,WUHU216HW,2014-02-03 14:25:00,
2014-02-03 09:30:00,25.6,16.0,30.16,NNE,23,0.4,0.9,67,0.00,,,0.00,WUHU216HW,2014-02-03 14:30:00,
2014-02-03 09:35:00,25.7,16.2,30.17,North,0,0.7,1.1,67,0.00,,,0.00,WUHU216HW,2014-02-03 14:35:00,
2014-02-03 09:40:00,25.9,16.4,30.18,North,0,0.2,1.1,67,0.00,,,0.00,WUHU216HW,2014-02-03 14:40:00,
2014-02-03 09:45:00,25.9,16.4,30.18,SSE,158,0.0,1.1,67,0.00,,,0.00,WUHU216HW,2014-02-03 14:45:00,
2014-02-03 09:50:00,25.9,16.4,30.18,SSE,158,0.4,1.1,67,0.00,,,0.00,WUHU216HW,2014-02-03 14:50:00,
2014-02-03 09:55:00,25.9,16.4,30.18,North,0,0.0,1.3,67,0.00,,,0.00,WUHU216HW,2014-02-03 14:55:00,
2014-02-03 10:00:00,25.9,16.4,30.19,North,0,0.9,1.3,67,0.00,,,0.00,WUHU216HW,2014-02-03 15:00:00,
2014-02-03 10:05:00,25.9,16.4,30.19,North,0,0.4,1.1,67,0.00,,,0.00,WUHU216HW,2014-02-03 15:05:00,
2014-02-03 10:10:00,26.1,16.6,30.19,North,0,0.7,1.1,67,0.00,,,0.00,WUHU216HW,2014-02-03 15:10:00,
2014-02-03 10:15:00,26.3,16.7,30.19,North,0,0.4,1.1,67,0.00,,,0.00,WUHU216HW,2014-02-03 15:15:00,
2014-02-03 10:20:00,26.5,16.9,30.20,North,0,1.1,1.1,67,0.00,,,0.00,WUHU216HW,2014-02-03 15:20:00,
2014-02-03 10:25:00,26.5,16.9,30.20,NNE,12,1.0,1.8,67,0.00,,,0.00,WUHU216HW,2014-02-03 15:25:00,
2014-02-03 10:30:00,26.6,17.1,30.19,North,0,0.9,1.8,67,0.00,,,0.00,WUHU216HW,2014-02-03 15:30:00,
2014-02-03 10:35:00,26.6,17.1,30.20,North,0,0.7,0.9,67,0.00,,,0.00,WUHU216HW,2014-02-03 15:35:00,
2014-02-03 10:40:00,26.8,17.3,30.19,North,0,0.7,0.9,67,0.00,,,0.00,WUHU216HW,2014-02-03 15:40:00,
2014-02-03 10:45:00,26.8,16.9,30.18,North,0,0.7,1.6,66,0.00,,,0.00,WUHU216HW,2014-02-03 15:45:00,
2014-02-03 10:50:00,26.8,17.3,30.19,North,0,0.4,1.6,67,0.00,,,0.00,WUHU216HW,2014-02-03 15:50:00,
2014-02-03 10:55:00,27.0,17.1,30.19,North,0,0.9,1.1,66,0.00,,,0.00,WUHU216HW,2014-02-03 15:55:00,
2014-02-03 11:00:00,27.0,17.1,30.19,North,0,0.7,1.8,66,0.00,,,0.00,WUHU216HW,2014-02-03 16:00:00,
2014-02-03 11:05:00,27.0,17.1,30.19,NE,45,1.1,1.8,66,0.00,,,0.00,WUHU216HW,2014-02-03 16:05:00,
2014-02-03 11:10:00,27.0,17.1,30.19,North,0,1.3,1.8,66,0.00,,,0.00,WUHU216HW,2014-02-03 16:10:00,
2014-02-03 11:15:00,27.0,17.1,30.19,North,0,0.9,1.8,66,0.00,,,0.00,WUHU216HW,2014-02-03 16:15:00,
2014-02-03 11:20:00,27.0,17.1,30.19,NE,34,0.6,1.6,66,0.00,,,0.00,WUHU216HW,2014-02-03 16:20:00,
2014-02-03 11:25:00,27.2,17.3,30.18,East,90,0.4,0.9,66,0.00,,,0.00,WUHU216HW,2014-02-03 16:25:00,
2014-02-03 11:30:00,27.2,17.3,30.18,East,90,0.4,1.1,66,0.00,,,0.00,WUHU216HW,2014-02-03 16:30:00,
2014-02-03 11:35:00,27.2,17.3,30.18,North,0,1.1,1.1,66,0.00,,,0.00,WUHU216HW,2014-02-03 16:35:00,
2014-02-03 11:40:00,27.4,17.5,30.18,North,0,0.7,1.6,66,0.00,,,0.00,WUHU216HW,2014-02-03 16:40:00,
2014-02-03 11:45:00,27.4,17.5,30.18,North,0,0.4,1.6,66,0.00,,,0.00,WUHU216HW,2014-02-03 16:45:00,
2014-02-03 11:50:00,27.4,17.5,30.18,North,0,1.8,1.8,66,0.00,,,0.00,WUHU216HW,2014-02-03 16:50:00,
2014-02-03 11:55:00,27.4,17.5,30.17,North,0,0.9,1.8,66,0.00,,,0.00,WUHU216HW,2014-02-03 16:55:00,
2014-02-03 12:00:00,27.5,17.6,30.17,ENE,68,1.3,1.8,66,0.00,,,0.00,WUHU216HW,2014-02-03 17:00:00,
2014-02-03 12:05:00,27.5,17.6,30.17,SE,135,0.7,1.8,66,0.00,,,0.00,WUHU216HW,2014-02-03 17:05:00,
2014-02-03 12:10:00,27.7,17.8,30.17,East,90,0.6,1.1,66,0.00,,,0.00,WUHU216HW,2014-02-03 17:10:00,
2014-02-03 12:15:00,27.7,17.8,30.17,NNE,23,0.7,0.7,66,0.00,,,0.00,WUHU216HW,2014-02-03 17:15:00,
2014-02-03 12:20:00,27.7,17.8,30.17,NNE,23,0.0,0.7,66,0.00,,,0.00,WUHU216HW,2014-02-03 17:20:00,
2014-02-03 12:25:00,27.9,18.0,30.17,NE,51,0.7,1.1,66,0.00,,,0.00,WUHU216HW,2014-02-03 17:25:00,
2014-02-03 12:30:00,27.7,17.8,30.16,North,0,1.3,1.3,66,0.00,,,0.00,WUHU216HW,2014-02-03 17:30:00,
2014-02-03 12:35:00,27.5,17.3,30.15,North,0,0.2,1.3,65,0.00,,,0.00,WUHU216HW,2014-02-03 17:35:00,
2014-02-03 12:40:00,27.7,17.8,30.15,North,0,0.4,0.9,66,0.00,,,0.00,WUHU216HW,2014-02-03 17:40:00,
2014-02-03 12:45:00,27.7,17.8,30.15,North,0,0.7,1.1,66,0.00,,,0.00,WUHU216HW,2014-02-03 17:45:00,
2014-02-03 12:50:00,27.7,17.8,30.16,North,0,0.2,1.1,66,0.00,,,0.00,WUHU216HW,2014-02-03 17:50:00,
2014-02-03 12:55:00,27.7,17.5,30.16,North,0,1.1,1.1,65,0.00,,,0.00,WUHU216HW,2014-02-03 17:55:00,
2014-02-03 13:00:00,27.7,17.5,30.15,North,0,1.8,1.8,65,0.00,,,0.00,WUHU216HW,2014-02-03 18:00:00,
2014-02-03 13:05:00,27.7,17.5,30.15,North,0,0.6,1.8,65,0.00,,,0.00,WUHU216HW,2014-02-03 18:05:00,
2014-02-03 13:10:00,27.9,17.6,30.15,East,90,1.1,1.3,65,0.00,,,0.00,WUHU216HW,2014-02-03 18:10:00,
2014-02-03 13:15:00,28.1,17.8,30.15,ESE,113,0.6,1.3,65,0.00,,,0.00,WUHU216HW,2014-02-03 18:15:00,
2014-02-03 13:20:00,27.9,17.6,30.15,ESE,113,0.3,1.1,65,0.00,,,0.00,WUHU216HW,2014-02-03 18:20:00,
2014-02-03 13:25:00,28.3,18.0,30.15,NE,45,0.8,1.1,65,0.00,,,0.00,WUHU216HW,2014-02-03 18:25:00,
2014-02-03 13:30:00,28.3,18.0,30.15,NE,45,0.4,1.3,65,0.00,,,0.00,WUHU216HW,2014-02-03 18:30:00,
2014-02-03 13:35:00,28.3,18.0,30.15,NE,45,1.6,1.6,65,0.00,,,0.00,WUHU216HW,2014-02-03 18:35:00,
2014-02-03 13:40:00,28.3,18.0,30.15,North,0,0.7,1.6,65,0.00,,,0.00,WUHU216HW,2014-02-03 18:40:00,
2014-02-03 13:45:00,28.3,18.0,30.15,NNE,23,1.1,1.1,65,0.00,,,0.00,WUHU216HW,2014-02-03 18:45:00,
2014-02-03 13:50:00,28.3,18.0,30.16,NNE,23,0.4,1.3,65,0.00,,,0.00,WUHU216HW,2014-02-03 18:50:00,
2014-02-03 13:55:00,28.4,17.8,30.16,NNE,23,0.4,1.3,64,0.00,,,0.00,WUHU216HW,2014-02-03 18:55:00,
2014-02-03 14:00:00,28.3,17.6,30.15,North,0,0.4,1.1,64,0.00,,,0.00,WUHU216HW,2014-02-03 19:00:00,
2014-02-03 14:05:00,28.4,18.2,30.15,NNE,23,0.8,1.1,65,0.00,,,0.00,WUHU216HW,2014-02-03 19:05:00,
2014-02-03 14:10:00,28.4,18.2,30.15,NNE,23,0.8,1.3,65,0.00,,,0.00,WUHU216HW,2014-02-03 19:10:00,
2014-02-03 14:15:00,28.4,18.2,30.15,NNE,23,1.2,1.3,65,0.00,,,0.00,WUHU216HW,2014-02-03 19:15:00,
2014-02-03 14:20:00,28.4,18.2,30.15,NNE,23,1.8,1.8,65,0.00,,,0.00,WUHU216HW,2014-02-03 19:20:00,
2014-02-03 14:25:00,28.6,18.4,30.15,NNE,23,0.9,1.8,65,0.00,,,0.00,WUHU216HW,2014-02-03 19:25:00,
2014-02-03 14:30:00,28.6,18.4,30.15,NNE,23,0.9,1.8,65,0.00,,,0.00,WUHU216HW,2014-02-03 19:30:00,
2014-02-03 14:35:00,28.8,18.6,30.15,NNE,23,0.6,1.1,65,0.00,,,0.00,WUHU216HW,2014-02-03 19:35:00,
2014-02-03 14:40:00,29.0,18.6,30.15,NNE,23,0.6,1.1,65,0.00,,,0.00,WUHU216HW,2014-02-03 19:40:00,
2014-02-03 14:45:00,29.0,18.6,30.15,NNE,23,0.0,1.1,65,0.00,,,0.00,WUHU216HW,2014-02-03 19:45:00,
2014-02-03 14:50:00,29.0,18.3,30.15,North,0,0.4,1.1,64,0.00,,,0.00,WUHU216HW,2014-02-03 19:50:00,
2014-02-03 14:55:00,29.2,18.5,30.15,North,0,0.4,1.1,64,0.00,,,0.00,WUHU216HW,2014-02-03 19:55:00,
2014-02-03 15:00:00,29.2,18.5,30.15,WNW,293,0.4,0.4,64,0.00,,,0.00,WUHU216HW,2014-02-03 20:00:00,
2014-02-03 15:05:00,29.2,18.5,30.15,NW,315,0.7,1.1,64,0.00,,,0.00,WUHU216HW,2014-02-03 20:05:00,
2014-02-03 15:10:00,29.0,18.3,30.15,NW,315,0.4,1.1,64,0.00,,,0.00,WUHU216HW,2014-02-03 20:10:00,
2014-02-03 15:15:00,28.8,18.2,30.15,NW,315,0.4,0.4,64,0.00,,,0.00,WUHU216HW,2014-02-03 20:15:00,
2014-02-03 15:20:00,29.0,18.3,30.16,NNW,338,0.0,0.4,64,0.00,,,0.00,WUHU216HW,2014-02-03 20:20:00,
2014-02-03 15:25:00,29.0,18.3,30.16,NNW,338,0.4,0.4,64,0.00,,,0.00,WUHU216HW,2014-02-03 20:25:00,
2014-02-03 15:29:00,29.0,18.3,30.16,NNE,23,0.7,0.9,64,0.00,,,0.00,WUHU216HW,2014-02-03 20:29:00,
2014-02-03 15:34:00,28.8,18.2,30.15,North,0,1.3,1.3,64,0.00,,,0.00,WUHU216HW,2014-02-03 20:34:00,
2014-02-03 15:39:00,28.4,17.5,30.16,North,0,1.3,1.6,63,0.00,,,0.00,WUHU216HW,2014-02-03 20:39:00,
2014-02-03 15:45:00,28.4,17.5,30.16,North,0,0.4,1.6,63,0.00,,,0.00,WUHU216HW,2014-02-03 20:45:00,
2014-02-03 15:49:00,28.4,17.5,30.16,North,0,0.8,1.1,63,0.00,,,0.00,WUHU216HW,2014-02-03 20:49:00,
2014-02-03 15:54:00,28.4,17.5,30.16,North,0,0.2,1.1,63,0.00,,,0.00,WUHU216HW,2014-02-03 20:54:00,
2014-02-03 15:59:00,28.6,18.0,30.16,North,0,0.0,0.7,64,0.00,,,0.00,WUHU216HW,2014-02-03 20:59:00,
2014-02-03 16:04:00,28.4,17.5,30.16,North,0,0.0,0.2,63,0.00,,,0.00,WUHU216HW,2014-02-03 21:04:00,
2014-02-03 16:09:00,28.6,17.7,30.16,North,0,0.0,1.1,63,0.00,,,0.00,WUHU216HW,2014-02-03 21:09:00,
2014-02-03 16:14:00,28.4,17.5,30.16,North,0,0.0,1.1,63,0.00,,,0.00,WUHU216HW,2014-02-03 21:14:00,
2014-02-03 16:19:00,28.4,17.8,30.17,North,0,0.0,0.0,64,0.00,,,0.00,WUHU216HW,2014-02-03 21:19:00,
2014-02-03 16:24:00,28.4,17.8,30.16,North,0,0.0,0.0,64,0.00,,,0.00,WUHU216HW,2014-02-03 21:24:00,
2014-02-03 16:29:00,28.4,17.8,30.16,North,0,0.0,0.0,64,0.00,,,0.00,WUHU216HW,2014-02-03 21:29:00,
2014-02-03 16:34:00,28.4,17.5,30.16,North,0,0.0,0.4,63,0.00,,,0.00,WUHU216HW,2014-02-03 21:34:00,
2014-02-03 16:39:00,28.3,17.3,30.16,NE,45,0.0,0.9,63,0.00,,,0.00,WUHU216HW,2014-02-03 21:39:00,
2014-02-03 16:44:00,28.3,17.3,30.16,NE,45,0.4,0.9,63,0.00,,,0.00,WUHU216HW,2014-02-03 21:44:00,
2014-02-03 16:49:00,28.1,17.1,30.16,North,0,0.2,1.1,63,0.00,,,0.00,WUHU216HW,2014-02-03 21:49:00,
2014-02-03 16:54:00,28.1,17.5,30.16,North,0,0.4,1.1,64,0.00,,,0.00,WUHU216HW,2014-02-03 21:54:00,
2014-02-03 16:59:00,27.9,17.3,30.17,North,0,0.4,0.4,64,0.00,,,0.00,WUHU216HW,2014-02-03 21:59:00,
2014-02-03 17:04:00,27.7,16.7,30.17,North,0,0.8,0.9,63,0.00,,,0.00,WUHU216HW,2014-02-03 22:04:00,
2014-02-03 17:09:00,27.7,16.7,30.17,North,0,0.4,1.1,63,0.00,,,0.00,WUHU216HW,2014-02-03 22:09:00,
2014-02-03 17:14:00,27.7,17.1,30.17,North,0,0.2,1.1,64,0.00,,,0.00,WUHU216HW,2014-02-03 22:14:00,
2014-02-03 17:19:00,27.5,16.9,30.17,North,0,0.0,0.7,64,0.00,,,0.00,WUHU216HW,2014-02-03 22:19:00,
2014-02-03 17:24:00,27.5,16.9,30.17,North,0,0.0,0.4,64,0.00,,,0.00,WUHU216HW,2014-02-03 22:24:00,
2014-02-03 17:29:00,27.5,16.9,30.17,North,0,0.0,0.7,64,0.00,,,0.00,WUHU216HW,2014-02-03 22:29:00,
2014-02-03 17:34:00,27.5,16.9,30.17,North,0,0.0,0.7,64,0.00,,,0.00,WUHU216HW,2014-02-03 22:34:00,
2014-02-03 17:39:00,27.4,16.7,30.17,North,0,0.0,0.0,64,0.00,,,0.00,WUHU216HW,2014-02-03 22:39:00,
2014-02-03 17:44:00,27.4,16.7,30.17,North,0,0.0,0.0,64,0.00,,,0.00,WUHU216HW,2014-02-03 22:44:00,
2014-02-03 17:49:00,27.4,16.7,30.18,North,0,0.0,0.0,64,0.00,,,0.00,WUHU216HW,2014-02-03 22:49:00,
2014-02-03 17:54:00,27.2,16.9,30.18,North,0,0.0,0.0,65,0.00,,,0.00,WUHU216HW,2014-02-03 22:54:00,
2014-02-03 17:59:00,27.4,17.1,30.17,North,0,0.0,0.0,65,0.00,,,0.00,WUHU216HW,2014-02-03 22:59:00,
2014-02-03 18:04:00,27.2,16.9,30.17,North,0,0.0,0.0,65,0.00,,,0.00,WUHU216HW,2014-02-03 23:04:00,
2014-02-03 18:09:00,27.2,16.9,30.18,North,0,0.0,0.0,65,0.00,,,0.00,WUHU216HW,2014-02-03 23:09:00,
2014-02-03 18:14:00,27.2,16.9,30.18,North,0,0.0,0.0,65,0.00,,,0.00,WUHU216HW,2014-02-03 23:14:00,
2014-02-03 18:19:00,27.0,16.7,30.18,North,0,0.4,0.4,65,0.00,,,0.00,WUHU216HW,2014-02-03 23:19:00,
2014-02-03 18:24:00,27.0,16.7,30.17,North,0,0.2,0.9,65,0.00,,,0.00,WUHU216HW,2014-02-03 23:24:00,
2014-02-03 18:29:00,27.0,16.7,30.18,North,0,0.9,0.9,65,0.00,,,0.00,WUHU216HW,2014-02-03 23:29:00,
2014-02-03 18:34:00,27.0,16.7,30.18,North,0,0.3,0.9,65,0.00,,,0.00,WUHU216HW,2014-02-03 23:34:00,
2014-02-03 18:39:00,27.0,16.7,30.19,North,0,0.3,0.9,65,0.00,,,0.00,WUHU216HW,2014-02-03 23:39:00,
2014-02-03 18:44:00,26.8,16.6,30.19,North,0,0.0,0.4,65,0.00,,,0.00,WUHU216HW,2014-02-03 23:44:00,
2014-02-03 18:49:00,26.8,16.6,30.20,North,0,0.0,0.0,65,0.00,,,0.00,WUHU216HW,2014-02-03 23:49:00,
2014-02-03 18:54:00,26.8,16.6,30.19,North,0,1.1,1.1,65,0.00,,,0.00,WUHU216HW,2014-02-03 23:54:00,
2014-02-03 18:59:00,26.8,16.6,30.19,North,0,0.4,1.1,65,0.00,,,0.00,WUHU216HW,2014-02-03 23:59:00,
2014-02-03 19:04:00,26.8,16.6,30.19,North,0,0.9,0.9,65,0.00,,,0.00,WUHU216HW,2014-02-04 00:04:00,
2014-02-03 19:09:00,26.8,16.9,30.19,North,0,1.1,1.1,66,0.00,,,0.00,WUHU216HW,2014-02-04 00:09:00,
2014-02-03 19:14:00,26.8,16.6,30.20,North,0,0.2,1.1,65,0.00,,,0.00,WUHU216HW,2014-02-04 00:14:00,
2014-02-03 19:19:00,26.8,16.9,30.20,North,0,0.0,0.7,66,0.00,,,0.00,WUHU216HW,2014-02-04 00:19:00,
2014-02-03 19:24:00,26.8,16.9,30.20,North,0,0.0,0.7,66,0.00,,,0.00,WUHU216HW,2014-02-04 00:24:00,
2014-02-03 19:29:00,26.8,16.9,30.20,North,0,0.0,0.0,66,0.00,,,0.00,WUHU216HW,2014-02-04 00:29:00,
2014-02-03 19:34:00,26.8,16.9,30.20,North,0,0.0,0.0,66,0.00,,,0.00,WUHU216HW,2014-02-04 00:34:00,
2014-02-03 19:39:00,26.6,16.7,30.20,North,0,0.4,0.7,66,0.00,,,0.00,WUHU216HW,2014-02-04 00:39:00,
2014-02-03 19:44:00,26.6,16.7,30.20,North,0,1.0,1.3,66,0.00,,,0.00,WUHU216HW,2014-02-04 00:44:00,
2014-02-03 19:49:00,26.6,16.7,30.20,North,0,0.0,1.3,66,0.00,,,0.00,WUHU216HW,2014-02-04 00:49:00,
2014-02-03 19:54:00,26.6,16.7,30.20,North,0,0.0,0.7,66,0.00,,,0.00,WUHU216HW,2014-02-04 00:54:00,
2014-02-03 19:59:00,26.6,16.7,30.21,North,0,0.0,0.0,66,0.00,,,0.00,WUHU216HW,2014-02-04 00:59:00,
2014-02-03 20:04:00,26.6,16.7,30.21,North,0,0.4,0.4,66,0.00,,,0.00,WUHU216HW,2014-02-04 01:04:00,
2014-02-03 20:09:00,26.6,16.7,30.22,North,0,0.0,0.4,66,0.00,,,0.00,WUHU216HW,2014-02-04 01:09:00,
2014-02-03 20:14:00,26.6,16.7,30.22,North,0,0.4,0.4,66,0.00,,,0.00,WUHU216HW,2014-02-04 01:14:00,
2014-02-03 20:19:00,26.6,16.7,30.22,North,0,0.0,0.4,66,0.00,,,0.00,WUHU216HW,2014-02-04 01:19:00,
2014-02-03 20:24:00,26.5,16.6,30.22,North,0,0.4,0.4,66,0.00,,,0.00,WUHU216HW,2014-02-04 01:24:00,
2014-02-03 20:29:00,26.5,16.6,30.22,North,0,0.0,0.4,66,0.00,,,0.00,WUHU216HW,2014-02-04 01:29:00,
2014-02-03 20:34:00,26.5,16.6,30.23,North,0,0.0,0.0,66,0.00,,,0.00,WUHU216HW,2014-02-04 01:34:00,
2014-02-03 20:39:00,26.5,16.6,30.22,North,0,0.2,0.2,66,0.00,,,0.00,WUHU216HW,2014-02-04 01:39:00,
2014-02-03 20:44:00,26.3,16.4,30.23,SSE,158,0.0,0.2,66,0.00,,,0.00,WUHU216HW,2014-02-04 01:44:00,
2014-02-03 20:49:00,26.3,16.4,30.23,SSE,158,0.0,0.4,66,0.00,,,0.00,WUHU216HW,2014-02-04 01:49:00,
2014-02-03 20:54:00,26.3,16.4,30.23,SSE,158,0.0,0.4,66,0.00,,,0.00,WUHU216HW,2014-02-04 01:54:00,
2014-02-03 20:59:00,26.3,16.4,30.23,North,0,0.2,0.7,66,0.00,,,0.00,WUHU216HW,2014-02-04 01:59:00,
2014-02-03 21:04:00,26.1,16.2,30.24,North,0,0.0,0.7,66,0.00,,,0.00,WUHU216HW,2014-02-04 02:04:00,
2014-02-03 21:09:00,26.1,15.8,30.24,SW,225,0.2,1.8,65,0.00,,,0.00,WUHU216HW,2014-02-04 02:09:00,
2014-02-03 21:14:00,25.9,15.7,30.25,SW,225,0.0,1.8,65,0.00,,,0.00,WUHU216HW,2014-02-04 02:14:00,
2014-02-03 21:19:00,25.9,15.7,30.24,SW,225,0.0,0.0,65,0.00,,,0.00,WUHU216HW,2014-02-04 02:19:00,
2014-02-03 21:24:00,25.7,15.8,30.24,SW,225,0.8,0.9,66,0.00,,,0.00,WUHU216HW,2014-02-04 02:24:00,
2014-02-03 21:29:00,25.6,15.7,30.24,SW,225,0.0,0.9,66,0.00,,,0.00,WUHU216HW,2014-02-04 02:29:00,
2014-02-03 21:34:00,25.6,15.7,30.24,SW,225,0.4,0.4,66,0.00,,,0.00,WUHU216HW,2014-02-04 02:34:00,
2014-02-03 21:39:00,25.6,15.7,30.24,SW,225,0.0,0.4,66,0.00,,,0.00,WUHU216HW,2014-02-04 02:39:00,
2014-02-03 21:44:00,25.4,15.6,30.24,SW,225,0.0,0.0,66,0.00,,,0.00,WUHU216HW,2014-02-04 02:44:00,
2014-02-03 21:49:00,25.2,15.4,30.25,SW,225,0.0,0.0,66,0.00,,,0.00,WUHU216HW,2014-02-04 02:49:00,
2014-02-03 21:54:00,25.0,15.2,30.25,SW,225,0.0,0.0,66,0.00,,,0.00,WUHU216HW,2014-02-04 02:54:00,
2014-02-03 21:59:00,24.8,15.0,30.25,SW,225,0.0,0.0,66,0.00,,,0.00,WUHU216HW,2014-02-04 02:59:00,
2014-02-03 22:04:00,24.8,15.0,30.25,SW,225,0.0,0.0,66,0.00,,,0.00,WUHU216HW,2014-02-04 03:04:00,
2014-02-03 22:09:00,24.7,14.9,30.24,SW,225,0.0,0.0,66,0.00,,,0.00,WUHU216HW,2014-02-04 03:09:00,
2014-02-03 22:14:00,24.3,14.5,30.24,West,270,0.0,0.4,66,0.00,,,0.00,WUHU216HW,2014-02-04 03:14:00,
2014-02-03 22:19:00,24.1,14.3,30.25,West,270,0.4,0.4,66,0.00,,,0.00,WUHU216HW,2014-02-04 03:19:00,
2014-02-03 22:24:00,23.9,14.1,30.25,West,270,0.0,0.4,66,0.00,,,0.00,WUHU216HW,2014-02-04 03:24:00,
2014-02-03 22:29:00,23.6,13.9,30.25,West,270,0.2,0.4,66,0.00,,,0.00,WUHU216HW,2014-02-04 03:29:00,
2014-02-03 22:34:00,23.4,13.7,30.25,West,270,0.0,0.2,66,0.00,,,0.00,WUHU216HW,2014-02-04 03:34:00,
2014-02-03 22:39:00,23.4,13.7,30.25,NNW,338,0.7,0.7,66,0.00,,,0.00,WUHU216HW,2014-02-04 03:39:00,
2014-02-03 22:44:00,23.2,13.5,30.25,NNW,338,0.0,0.7,66,0.00,,,0.00,WUHU216HW,2014-02-04 03:44:00,
2014-02-03 22:49:00,23.0,13.3,30.25,NNW,338,0.4,0.7,66,0.00,,,0.00,WUHU216HW,2014-02-04 03:49:00,
2014-02-03 22:54:00,23.0,13.7,30.25,NNW,338,0.0,0.7,67,0.00,,,0.00,WUHU216HW,2014-02-04 03:54:00,
2014-02-03 22:59:00,22.9,13.5,30.25,NNW,338,0.7,0.7,67,0.00,,,0.00,WUHU216HW,2014-02-04 03:59:00,
2014-02-03 23:04:00,22.7,13.3,30.25,NNW,338,0.8,1.1,67,0.00,,,0.00,WUHU216HW,2014-02-04 04:04:00,
2014-02-03 23:09:00,22.7,13.3,30.25,North,0,0.9,1.1,67,0.00,,,0.00,WUHU216HW,2014-02-04 04:09:00,
2014-02-03 23:14:00,22.7,13.3,30.25,North,0,0.0,0.9,67,0.00,,,0.00,WUHU216HW,2014-02-04 04:14:00,
2014-02-03 23:19:00,22.5,13.1,30.25,North,0,0.4,0.4,67,0.00,,,0.00,WUHU216HW,2014-02-04 04:19:00,
2014-02-03 23:24:00,22.3,13.0,30.25,North,0,0.0,0.4,67,0.00,,,0.00,WUHU216HW,2014-02-04 04:24:00,
2014-02-03 23:29:00,22.3,13.0,30.25,North,0,0.4,0.4,67,0.00,,,0.00,WUHU216HW,2014-02-04 04:29:00,
2014-02-03 23:34:00,22.0,12.6,30.25,North,0,0.4,0.4,67,0.00,,,0.00,WUHU216HW,2014-02-04 04:34:00,
2014-02-03 23:39:00,21.8,12.2,30.25,North,0,0.0,0.4,66,0.00,,,0.00,WUHU216HW,2014-02-04 04:39:00,
2014-02-03 23:44:00,21.6,12.0,30.25,North,0,0.4,0.4,66,0.00,,,0.00,WUHU216HW,2014-02-04 04:44:00,
2014-02-03 23:49:00,21.4,11.8,30.26,North,0,0.7,0.9,66,0.00,,,0.00,WUHU216HW,2014-02-04 04:49:00,
2014-02-03 23:54:00,21.2,11.6,30.25,North,0,0.0,0.9,66,0.00,,,0.00,WUHU216HW,2014-02-04 04:54:00,
2014-02-03 23:59:00,21.2,12.0,30.25,North,0,0.0,0.7,67,0.00,,,0.00,WUHU216HW,2014-02-04 04:59:00,